Presure
208 210 203 183 129 149 127 143 126 153 142 148 153 156 176 181 172 173 165 172 147 148 116 120 113 135 162 158 142 179 122 132 130 176 156 168 171 114 126 153 185 156 163 133 153
174 197 205 195 191 205 194 178 135 160 143 158 142 145 158 140 157 156 153 165 165 187 112 135 116 137 148 167 125 131 118 159 120 125 134 165 123 146 153 154 138 153 140 128 126
143 192 186 204 204 190 177 211 213 182 156 181 127 174 133 150 137 126 143 144 138 148 186 161 151 158 152 171 155 132 137 191 133 127 113 117 136 135 122 131 158 157 113 156 130
201 195 172 190 214 202 181 202 226 183 141 178 184 184 126 143 163 155 157 136 147 144 135 146 175 154 137 184 181 152 160 161 154 143 135 185 112 118 117 140 158 133 159 129 133
154 208 208 209 198 193 192 204 206 213 211 193 202 213 237 141 186 164 168 161 159 161 164 146 133 165 155 150 130 147 180 177 143 141 151 136 162 156 176 192 159 175 131 143 166
189 184 207 186 217 221 209 145 205 184 183 204 215 190 219 199 202 195 147 193 159 183 188 181 167 163 162 168 154 148 177 190 150 134 155 163 167 135 150 180 156 141 141 182 172
218 182 211 219 214 212 225 208 200 237 235 232 196 216 217 139 205 188 198 196 124 203 180 185 168 190 164 111 128 170 180 137 146 174 151 191 144 185 128 184 161 123 161 182 180
218 195 215 176 210 205 232 316 222 173 280 251 308 222 192 257 174 159 229 176 200 213 205 201 133 182 189 160 183 193 196 199 176 149 190 171 175 182 162 154 116 173 155 166 199
236 205 228 226 233 172 252 305 265 214 271 287 264 225 180 220 238 241 187 191 198 202 204 220 200 199 197 184 167 169 179 167 165 181 158 155 159 145 182 116 152 198 199 208 199
204 226 269 333 316 213 162 182 250 239 217 201 270 320 200 189 248 193 254 188 232 197 194 200 192 196 212 193 204 191 195 197 198 199 195 181 189 195 162 196 170 190 183 195 193
225 230 241 262 223 199 270 243 250 245 258 230 248 283 323 322 343 260 280 309 178 201 188 179 203 209 195 205 203 151 207 201 213 207 200 204 196 210 200 197 135 208 142 201 152
213 246 171 277 284 197 280 289 172 153 263 263 279 311 295 325 301 307 188 193 231 271 176 240 277 225 214 185 195 184 215 208 208 205 199 200 204 139 202 187 187 210 212 219 211
283 238 213 310 243 297 281 277 281 336 334 289 253 289 287 292 332 282 287 306 299 291 284 283 282 245 289 230 197 222 231 197 212 199 221 223 228 228 171 214 175 215 219 238 232
292 297 322 297 284 279 312 332 315 331 325 325 296 300 321 313 305 323 330 303 255 291 287 281 221 279 280 245 282 226 261 233 238 214 234 226 229 230 233 230 237 237 218 275 282
317 351 289 341 355 337 343 332 295 331 301 300 315 314 314 306 304 315 325 325 327 303 290 242 273 274 207 245 253 279 279 276 214 201 225 217 216 223 132 231 244 241 314 305 241
342 343 331 306 301 313 282 281 283 302 288 286 286 304 304 293 295 300 265 316 323 297 303 304 286 279 277 278 279 276 289 291 294 290 286 139 293 300 291 165 308 309 312 354 353
350 289 289 348 360 356 355 360 386 337 300 293 282 303 305 303 298 288 295 304 299 301 293 296 304 305 298 287 284 286 287 293 294 290 279 275 305 305 299 308 299 336 305 346 323
288 269 354 340 325 351 368 446 339 373 400 312 292 287 293 280 285 273 289 279 297 311 307 293 303 304 303 307 309 309 308 308 311 310 308 253 320 314 315 286 350 295 307 314 302
294 343 333 318 354 415 409 435 392 356 334 380 320 289 292 263 280 275 272 286 284 299 292 284 288 285 305 306 309 317 137 306 345 306 345 337 333 353 182 298 289 324 313 295 288
338 325 318 412 401 362 357 416 397 376 367 423 344 308 290 268 276 265 272 279 280 274 289 295 302 290 305 309 316 313 310 358 376 347 367 349 341 343 346 343 322 307 292 282 281
323 318 319 436 414 403 382 368 375 380 386 383 403 331 304 272 269 261 270 273 282 269 250 314 292 285 314 316 308 299 294 370 360 360 341 330 338 289 314 320 299 294 289 279 272
314 306 392 413 376 377 361 351 364 394 366 383 379 363 317 295 286 276 262 278 268 267 274 279 290 311 305 309 314 368 365 359 353 329 313 324 331 323 313 291 287 285 278 265 274
305 314 423 390 377 358 346 341 360 371 375 377 373 351 334 309 301 266 268 278 277 258 293 304 305 309 307 337 362 361 354 349 353 319 317 299 314 306 293 289 285 276 265 275 258
304 309 404 387 362 360 349 340 380 376 370 371 364 341 322 303 287 275 270 284 288 304 306 306 300 308 326 351 356 346 339 339 325 317 306 315 302 294 288 279 273 265 273 257 265
303 366 391 376 368 342 330 349 299 369 362 354 341 326 316 305 302 297 293 291 305 290 296 301 303 345 344 351 341 338 338 326 309 321 310 300 290 284 282 271 265 274 261 263 292
304 428 397 372 313 343 343 369 296 354 349 330 321 318 309 304 298 301 304 303 300 299 294 301 338 343 340 334 335 363 335 312 319 309 300 288 275 279 272 266 268 263 262 296 246
341 414 383 358 301 343 330 374 355 338 328 321 313 309 304 310 313 311 290 305 297 291 295 345 335 329 326 324 340 336 313 310 305 297 280 281 277 271 267 267 264 262 270 230 260
Wind_Speed
69 65 66 72 57 60 56 63 57 64 61 61 61 62 70 70 63 63 62 63 55 55 44 43 44 41 54 51 44 54 39 40 39 50 43 46 46 30 34 45 46 44 41 41 46
69 64 63 67 71 66 71 76 65 73 65 70 62 62 66 56 62 63 61 65 62 69 49 51 46 47 50 55 42 45 42 50 38 39 44 50 36 50 41 49 43 42 39 36 36
72 63 65 74 63 70 79 70 69 80 75 81 61 79 61 64 59 54 59 58 55 57 73 64 55 57 52 62 54 47 51 64 48 43 38 36 47 48 38 39 55 50 35 50 38
73 71 72 67 84 71 75 70 81 85 70 85 82 87 62 62 74 68 70 59 63 61 56 56 69 59 49 68 67 56 58 57 53 51 49 58 38 40 39 52 50 51 56 44 54
70 84 86 78 65 75 81 75 75 79 81 86 87 89 96 65 81 77 77 75 72 72 71 60 58 67 65 57 55 57 67 65 52 52 55 52 63 62 67 60 61 62 51 60 63
78 67 77 72 89 89 75 63 81 79 91 79 84 79 91 90 86 85 75 86 75 85 85 82 76 70 68 66 57 56 67 73 57 51 57 61 69 51 53 67 60 46 49 67 65
101 73 90 90 89 81 92 70 82 103 101 97 87 92 86 70 91 89 88 87 65 90 87 87 74 83 76 56 55 74 75 51 55 70 62 68 59 69 34 69 66 32 58 68 71
100 74 92 82 95 82 84 72 86 79 75 97 76 93 89 111 89 81 93 87 88 91 93 91 63 82 85 70 81 85 83 83 75 59 73 72 75 75 69 55 39 67 66 68 80
110 98 104 111 81 86 85 72 80 77 78 80 84 86 92 89 91 100 94 96 87 90 92 98 94 92 89 83 72 77 80 78 74 78 69 67 71 60 74 40 58 79 79 86 80
101 97 89 78 75 81 85 83 78 82 80 75 71 72 84 90 102 97 99 96 106 95 91 95 93 93 96 89 95 87 87 89 89 86 83 79 82 84 62 78 67 68 62 76 70
99 81 79 73 82 69 72 79 77 79 76 84 81 70 66 59 59 82 86 78 84 102 94 80 100 100 92 96 95 63 98 92 99 93 87 90 87 96 82 76 57 88 65 78 63
92 80 58 74 75 67 72 71 61 72 71 74 71 65 69 62 62 55 92 96 93 89 74 90 94 106 104 76 90 76 97 95 96 93 84 88 92 50 84 73 77 92 92 95 88
79 78 63 75 65 74 70 70 67 64 64 62 77 64 66 68 60 69 64 62 73 78 82 83 83 94 85 88 90 101 101 82 96 84 98 100 99 104 58 90 71 91 92 95 96
79 77 72 69 68 67 70 67 66 61 60 53 60 61 53 55 52 54 54 59 80 75 78 80 73 81 81 95 87 93 101 100 100 91 97 100 96 99 98 96 100 100 85 82 81
76 71 66 71 71 68 70 68 60 63 62 54 50 51 52 54 53 52 53 48 46 62 75 73 79 78 86 77 89 84 87 92 94 79 97 95 81 96 48 97 95 88 63 65 71
73 73 68 63 65 64 64 68 68 63 63 57 52 51 53 53 52 46 52 44 45 52 56 63 75 79 79 80 80 80 78 78 78 80 80 49 78 71 71 41 59 57 55 36 29
68 61 63 60 58 59 57 57 61 72 61 62 56 53 55 56 54 43 41 40 36 42 50 55 58 64 74 80 79 78 75 75 72 72 70 69 66 62 60 53 51 36 44 25 28
62 65 54 55 55 54 52 37 56 49 56 67 59 57 56 53 48 47 42 41 34 35 37 46 48 53 60 65 70 72 74 74 72 70 67 63 54 54 47 46 27 41 33 27 28
60 49 50 52 48 32 33 30 37 46 46 57 64 60 56 55 50 45 42 36 31 29 39 47 49 56 52 58 60 59 39 66 48 58 41 42 40 33 53 38 37 25 25 28 27
44 48 47 34 26 32 29 15 24 33 32 30 61 62 57 57 52 50 42 38 32 35 34 41 45 54 50 52 50 53 53 37 30 32 28 27 31 24 19 19 22 24 24 27 25
46 47 47 12 13 9 9 16 20 22 26 32 34 61 61 59 54 53 43 38 32 42 59 36 47 52 41 41 46 48 46 28 28 26 25 29 23 30 22 19 22 23 23 23 20
46 45 29 15 18 8 12 18 17 16 28 33 38 46 58 58 55 49 48 36 36 41 39 44 43 37 41 40 37 27 25 27 27 26 28 21 16 21 22 23 23 22 19 20 18
45 46 12 15 13 14 19 23 18 17 25 31 36 42 46 53 52 47 41 36 36 48 36 35 34 34 35 30 24 22 23 25 26 26 24 23 22 23 23 23 20 18 19 15 18
44 45 14 14 18 13 12 19 10 15 22 25 32 38 43 47 49 45 39 36 35 33 31 31 34 30 28 23 20 21 24 26 24 25 24 24 26 25 24 21 19 19 14 15 12
44 34 19 20 20 14 19 12 18 17 24 26 29 35 39 42 42 40 36 34 32 31 31 28 28 22 20 18 21 24 28 25 24 23 26 29 26 24 23 21 21 15 12 10 13
45 20 21 20 21 13 13 9 15 23 27 30 31 34 36 38 36 33 31 29 26 26 26 23 21 17 16 20 23 21 28 26 25 29 29 27 24 24 23 22 18 12 8 11 14
44 21 20 19 23 13 14 17 26 27 29 31 33 34 35 31 28 26 28 22 23 25 22 17 16 17 21 22 23 30 30 29 29 29 27 27 26 25 23 19 13 10 7 14 9
Wind_Direction
286 285 272 261 263 265 263 265 261 263 259 257 258 261 264 262 256 257 255 258 255 258 247 242 244 254 261 259 254 260 247 252 255 264 255 261 258 254 260 258 261 261 259 256 258
263 274 280 266 274 266 258 258 260 259 259 260 261 257 259 259 258 256 257 256 257 259 244 251 244 256 256 260 249 250 247 259 247 248 254 261 251 258 258 262 265 263 255 261 253
277 274 267 280 277 262 259 274 271 255 259 255 254 258 255 255 251 254 256 255 254 257 259 258 259 258 258 259 254 254 253 263 251 251 250 245 258 261 248 263 257 256 251 263 261
287 286 263 270 281 274 266 264 280 257 258 254 257 254 251 257 256 257 255 253 255 255 249 255 257 257 253 259 258 259 257 256 257 256 257 260 248 247 245 265 256 267 261 271 274
274 287 286 286 277 263 272 271 271 272 269 260 259 263 262 256 254 256 254 258 257 256 255 255 250 255 257 257 256 260 258 256 256 257 257 260 259 262 259 260 262 260 270 268 261
279 273 286 270 288 283 277 272 268 269 254 260 262 256 260 255 254 254 247 254 250 254 255 257 257 255 256 259 255 256 259 261 258 252 261 264 256 263 262 258 264 264 268 263 262
295 272 291 290 289 286 287 273 264 272 270 271 252 261 259 255 256 253 253 253 244 257 253 253 256 257 253 256 242 256 257 253 260 257 260 260 263 261 261 262 264 259 262 265 265
290 290 292 264 287 282 278 282 272 264 273 264 267 259 251 257 257 254 258 252 254 258 256 256 245 254 256 259 258 259 261 263 257 260 259 257 258 259 263 257 248 265 266 270 269
288 292 288 287 270 276 278 279 272 266 271 270 264 258 252 258 254 257 248 249 250 250 254 257 255 254 255 254 254 253 259 257 259 259 261 260 262 265 262 251 261 267 269 272 271
290 293 289 287 284 270 272 257 271 267 261 252 271 275 249 261 260 254 254 251 252 249 255 254 252 253 254 255 255 254 256 259 260 261 260 258 261 264 260 266 271 267 267 271 273
286 293 284 287 280 281 278 268 268 265 267 261 261 270 273 267 267 254 257 248 261 243 256 256 247 250 251 251 252 260 255 257 261 260 260 262 263 266 266 267 277 271 275 274 279
291 289 292 289 288 276 283 280 272 275 265 264 264 268 266 270 262 253 258 252 253 249 256 257 253 250 249 257 254 255 256 256 258 260 260 262 264 254 268 270 268 273 274 277 280
297 288 290 290 279 285 279 275 272 272 267 268 257 262 264 263 266 257 248 246 246 246 249 252 252 249 252 254 253 254 258 257 258 261 262 264 266 267 267 269 273 275 276 278 280
297 296 292 290 282 278 279 278 274 274 272 270 265 266 264 261 262 263 262 252 253 246 247 250 250 253 254 251 253 254 256 258 262 260 264 263 264 267 269 271 273 275 277 279 277
298 290 290 289 283 280 276 273 272 267 264 263 265 261 259 257 258 259 262 262 258 245 246 248 251 253 261 258 253 255 255 256 258 264 262 265 265 269 266 273 273 276 276 274 280
296 294 292 292 287 283 271 268 267 264 261 259 260 255 253 254 256 257 261 261 259 244 247 248 249 251 253 254 255 256 258 258 259 260 262 263 268 270 268 260 274 273 273 265 250
295 295 293 292 289 287 279 272 262 256 261 258 255 252 248 247 252 252 254 258 246 245 243 248 248 249 251 254 256 257 259 259 260 262 261 265 269 269 269 272 269 268 268 242 243
301 292 293 294 296 288 278 257 260 258 246 249 248 247 247 246 247 247 253 238 257 261 248 248 248 248 252 253 254 255 258 260 261 262 264 261 269 269 268 261 258 264 258 241 245
298 298 299 298 295 280 274 258 254 252 249 239 240 241 244 242 245 243 243 248 241 251 243 243 244 248 251 251 253 254 241 260 263 262 258 259 258 250 265 257 258 234 234 241 244
301 301 304 305 296 287 278 268 260 253 243 229 231 233 236 239 242 235 240 241 241 233 243 245 248 249 250 252 254 255 259 261 249 245 227 236 243 251 246 226 219 228 231 240 246
307 308 308 298 288 291 283 262 257 244 231 224 220 228 230 232 236 239 235 237 242 233 248 256 249 252 250 252 253 257 260 247 237 220 219 228 235 236 225 204 217 221 224 240 251
308 311 306 278 288 267 258 258 262 243 229 214 210 217 226 230 234 235 232 239 230 233 242 250 246 249 252 253 253 256 244 234 225 212 221 217 207 199 195 212 220 222 231 246 253
312 314 256 281 270 268 261 265 271 236 216 209 202 207 214 223 230 229 231 236 239 236 248 244 241 245 250 256 257 241 226 217 197 205 210 204 189 193 198 205 211 220 236 239 252
313 312 267 249 258 259 250 267 260 218 213 195 191 199 208 217 226 229 229 237 242 246 241 237 240 243 252 253 237 218 207 193 191 196 196 178 184 189 192 200 206 225 223 240 251
313 307 258 254 243 255 257 278 263 182 182 174 177 194 205 213 220 227 232 236 239 234 233 236 239 255 247 227 209 199 189 183 183 179 172 174 181 186 185 196 212 210 218 233 174
313 215 226 238 267 243 245 251 245 170 167 175 181 190 200 209 216 223 228 228 227 225 225 234 244 232 214 198 197 195 178 174 170 169 170 173 181 181 188 199 205 194 191 173 152
314 215 218 238 261 241 244 186 168 169 170 177 186 194 203 207 211 214 212 220 213 216 222 223 209 196 190 188 188 168 169 165 164 164 168 173 176 182 189 192 186 166 164 190 118